Погода в Манже

Мадагаскар     21°25′58″S   44°19′34″E
темп.,
°C
ветер,
м/с
пор.,
м/с
влажн.,
%
обл.,
%
осадки,
мм/ч
давл.,
гПа
погр.,
м
1 марта, пн
пн100:00+24вюв1185100 0.0 100824
03:00+24юв128791 0.0 100726
06:00+24вюв2689100 0.1 1007160
09:00+28в4674100 0.3 1009480
12:00+30всв3568100 3.0 1009889
15:00+27ссз1383100 4.1 1007223
18:00+26ююз1184100 0.0 100724
21:00+24ююв118196 0.3 101024
2 марта, вт
вт200:00+22в3791100 2.4 1010224
03:00+22в2691100 3.6 1009163
06:00+22вюв3890100 0.0 1009230
09:00+26в487798 0.0 1010370
12:00+31с355753 0.0 10091417
15:00+30ссз236267 1.3 10081282
18:00+26зюз2586100 3.5 1008104
21:00+24зюз2292100 4.3 101068
3 марта, ср
ср300:00+23ююв249294 0.0 1010100
03:00+22юв379294 0.0 1008172
06:00+21вюв279099 0.0 1008192
09:00+27всв247461 0.0 1009483
12:00+30ссз346058 0.4 10081168
15:00+30зсз336566 1.6 10071134
18:00+26юз1288100 2.7 100670
21:00+24юз1192100 2.8 100824
4 марта, чт
чт400:00+24ююз1290100 2.0 100724
03:00+22ссз3698100 2.9 1006282
06:00+22св1197100 0.3 100698
09:00+23всв2594100 0.8 1008249
12:00+24вюв2591100 0.4 1006353
15:00+24юв2495100 3.1 1004227
18:00+23юв2597100 3.6 1005227
21:00+22вюв4994100 4.2 1007366
5 марта, пт
пт500:00+22вюв51292100 0.1 1006533
03:00+22вюв51393100 1.6 1004667
06:00+22в5139188 0.0 1005666
09:00+25всв698184 0.0 1005683
12:00+28в577166 0.0 1004942
15:00+28юв467482 1.9 10021017
18:00+24вюв388867 1.8 1003463
21:00+22юв388940 1.8 1004260